Simultaneous Nadir Overpasses (SNOs) Predictions

Prediction of SNOs between GOES-17 and NOAA-19 Satellite Orbit:

Table of predicted SNOs for the next 14.0 days since TLE Epoch: 8/1/2025
Index Date Time (GOES-17) GOES-17 Lat,Lon NOAA-19 Lat,Lon Distance(km) Time Diff (sec)
1 08/03/2025 16:04:13 0.02, -89.51 0.70, -92.43 333.19 80
2 08/04/2025 15:48:54 0.01, -89.51 -0.01, -89.36 17.31 80
3 08/05/2025 15:36:14 0.01, -89.51 -0.72, -86.28 367.83 80
4 08/07/2025 04:10:08 -0.03, -89.49 -1.04, -93.78 490.84 80
5 08/08/2025 03:57:29 -0.03, -89.49 -0.29, -90.72 140.22 80
6 08/09/2025 03:42:10 -0.02, -89.49 0.41, -87.65 210.53 80
7 08/11/2025 16:03:18 0.03, -89.53 0.64, -92.05 288.10 80
8 08/12/2025 15:47:58 0.03, -89.54 -0.08, -88.98 63.09 80
9 08/13/2025 15:35:19 0.02, -89.54 -0.80, -85.91 414.32 80
10 08/15/2025 04:09:14 -0.05, -89.52 -0.95, -93.42 444.46 80
